Minot, ND

11:30 AM CDT on August 20, 2017 (GMT -0500)
Minot International

Weather History for KMOT - March, 2015

Change the Weather History Date:

Tuesday, March 31, 2015

  Actual Average Record
Temperature  
Mean Temperature 53 °F 36 °F  
Max Temperature 70 °F 46 °F 70 °F (2012)
Min Temperature 35 °F 26 °F -7 °F (1936)
Degree Days  
Heating Degree Days 12 29  
Month to date heating degree days 961 1135  
Since 1 July heating degree days 7649 7715  
Cooling Degree Days 0 0  
Month to date cooling degree days 0 0  
Year to date cooling degree days 0 0  
Growing Degree Days 2 (Base 50)    
Moisture  
Dew Point 30 °F    
Average Humidity 49    
Maximum Humidity 75    
Minimum Humidity 22    
Precipitation  
Precipitation 0.00 in 0.04 in 0.29 in (1974)
Month to date precipitation 0.37 0.84  
Year to date precipitation 0.84 1.75  
Sea Level Pressure  
Sea Level Pressure 29.81 in    
Wind  
Wind Speed 10 mph (SE)    
Max Wind Speed 22 mph    
Max Gust Speed 27 mph    
Visibility 10 miles    
Events      
T = Trace of Precipitation, MM = Missing Value Source: NWS Daily Summary

Daily Weather History Graph

Daily Weather History Graph

Search for Another Location

Airport or City:

Trip Planner

Search our weather history database for the weather conditions in past years. The results will help you decide how hot, cold, wet, or windy it might be!

Date:

Astronomy

Mar. 31, 2015 Rise Set
Actual Time 7:25 AM CDT 8:13 PM CDT
Civil Twilight 6:54 AM CDT 8:45 PM CDT
Nautical Twilight 6:16 AM CDT 9:23 PM CDT
Astronomical Twilight 5:36 AM CDT 10:03 PM CDT
Moon 4:45 PM CDT (3/31) 5:41 AM CDT (3/31)
Length of Visible Light 13h 51m
Length of Day
12h 48m
Waxing Gibbous, 87% of the Moon is Illuminated
Mar 31
Waxing Gibbous
Apr 4
Full
Apr 11
Last Quarter
Apr 18
New
Apr 25
First Quarter

Hourly Weather History & Observations

Time (CDT) Temp. Windchill Dew Point Humidity Pressure Visibility Wind Dir Wind Speed Gust Speed Precip Events Conditions
12:54 AM 44.1 °F 38.1 °F 30.0 °F 58% 29.94 in 10.0 mi NW 11.5 mph - N/A   Clear
1:54 AM 39.0 °F 34.0 °F 28.9 °F 67% 29.94 in 10.0 mi SW 6.9 mph - N/A   Scattered Clouds
2:54 AM 37.9 °F 31.5 °F 28.9 °F 70% 29.95 in 10.0 mi SW 9.2 mph - N/A   Overcast
3:54 AM 39.0 °F 32.8 °F 28.9 °F 67% 29.95 in 10.0 mi SW 9.2 mph - N/A   Mostly Cloudy
4:54 AM 39.9 °F 34.5 °F 30.0 °F 68% 29.94 in 10.0 mi SW 8.1 mph - N/A   Overcast
5:54 AM 37.0 °F 32.4 °F 28.9 °F 73% 29.94 in 10.0 mi SW 5.8 mph - N/A   Mostly Cloudy
6:54 AM 36.0 °F 30.3 °F 28.9 °F 76% 29.95 in 10.0 mi SW 6.9 mph - N/A   Mostly Cloudy
7:54 AM 37.0 °F - 28.9 °F 73% 29.96 in 10.0 mi Calm Calm - N/A   Overcast
8:54 AM 39.0 °F - 30.0 °F 70% 29.95 in 10.0 mi Calm Calm - N/A   Overcast
9:54 AM 44.1 °F 41.5 °F 30.9 °F 60% 29.93 in 10.0 mi SE 4.6 mph - N/A   Partly Cloudy
10:54 AM 51.1 °F - 30.9 °F 46% 29.90 in 10.0 mi ESE 9.2 mph - N/A   Partly Cloudy
11:54 AM 57.0 °F - 30.0 °F 36% 29.86 in 10.0 mi SE 11.5 mph - N/A   Clear
12:54 PM 61.0 °F - 28.9 °F 30% 29.83 in 10.0 mi ESE 15.0 mph 18.4 mph N/A   Clear
1:54 PM 63.0 °F - 26.1 °F 25% 29.80 in 10.0 mi SE 13.8 mph 20.7 mph N/A   Clear
2:54 PM 66.0 °F - 27.0 °F 23% 29.76 in 10.0 mi ESE 15.0 mph - N/A   Clear
3:54 PM 66.9 °F - 28.9 °F 24% 29.73 in 10.0 mi ESE 17.3 mph 25.3 mph N/A   Clear
4:54 PM 69.1 °F - 28.9 °F 22% 29.69 in 10.0 mi SE 15.0 mph - N/A   Clear
5:54 PM 68.0 °F - 30.0 °F 24% 29.66 in 10.0 mi ESE 19.6 mph - N/A   Clear
6:54 PM 66.0 °F - 30.9 °F 27% 29.64 in 10.0 mi ESE 16.1 mph - N/A   Clear
7:54 PM 60.1 °F - 32.0 °F 35% 29.64 in 10.0 mi East 6.9 mph - N/A   Clear
8:54 PM 54.0 °F - 33.1 °F 45% 29.62 in 10.0 mi East 10.4 mph - N/A   Clear
9:54 PM 52.0 °F - 33.1 °F 49% 29.62 in 10.0 mi East 10.4 mph - N/A   Clear
10:54 PM 48.9 °F - 34.0 °F 56% 29.58 in 10.0 mi East 12.7 mph - N/A   Clear
11:54 PM 48.0 °F - 33.1 °F 56% 29.56 in 10.0 mi ESE 11.5 mph - N/A   Clear